www.pogodaiklimat.ru

Погода и климат >> Архив погоды >> Индонезия >> Сурабая Перак


ПОГОДА в Сурабая Перак

  • Прогноз погоды в Сурабая Перак
  • Монитор погоды в Сурабая Перак

АРХИВ ПОГОДЫ в Сурабая Перак

Время (UTC), дата Ветер
(напр.,м/с)
 
Видим.   Явления Облачность Т
(С)
Тd
(С)
f
(%)
Тe
(С)
Тes
(С)
Комфортность P
(гПа)
Po
(гПа)
Тmin
(С)
Tmax
(С)
R
(мм)
R24
(мм)
S
(см)
03 18.06 ЮВ 4 12 км 4/4 600 м
[Cu hum]
+29.3 +22.0 65 +38 +44 очень
душно
1012.8 1012.4
06 18.06 В 3 12 км 1/1 600 м
[Cu hum]
+31.6 +22.2 58 +41 +51 опасность
перегрева
1010.5 1010.2
09 18.06 В 4 12 км 1/1 600 м
[Cu hum]
+30.5 +22.0 61 +39 +40 очень
душно
1009.4 1009.1
12 18.06 В 4 9000 м ясно +28.6 +22.6 70 +38 +38 очень
душно
1010.7 1010.4 +31.6
15 18.06 В 3 9000 м 1/1 600 м
[Cu hum]
+27.5 +22.6 75 +36 +36 очень
душно
1011.9 1011.6
18 18.06 штиль 0 9000 м 4/4 600 м
[Cu hum]
+27.1 +23.1 79 +36 +36 очень
душно
1011.5 1011.2
21 18.06 штиль 0 9000 м ясно +25.0 +21.9 83 +32 +32 очень
душно
1011.2 1010.8
00 19.06 штиль 0 9000 м 1/0
[Ci fib]
+24.2 +21.4 84 +31 +33 очень
душно
1012.6 1012.3 +23.4
03 19.06 В 2 10 км 4/4 600 м
[Cu hum]
+29.2 +21.0 61 +36 +45 очень
душно
1012.5 1012.2
06 19.06 ЮВ 3 12 км 1/1 600 м
[Cu hum]
+31.8 +19.5 48 +38 +49 очень
душно
1010.9 1010.5
09 19.06 ЮВ 2 12 км 3/0
[Ci fib]
+31.2 +18.4 47 +36 +38 очень
душно
1009.4 1009.0
12 19.06 СЗ 1 9000 м 4/3 600 м
[Cu hum Ci fib]
+29.0 +22.9 70 +39 +39 очень
душно
1010.8 1010.5 +32.4
15 19.06 Ю 2 9000 м 3/0
[Ci fib]
+27.8 +22.5 73 +37 +37 очень
душно
1011.2 1010.9
18 19.06 штиль 0 9000 м 6/6 600 м
[Sc]
+26.4 +21.6 75 +34 +34 очень
душно
1010.7 1010.4
21 19.06 штиль 0 9000 м 8/8 600 м
[Sc Ac trans]
+25.0 +21.0 78 +31 +31 очень
душно
1011.4 1011.1
00 20.06 штиль 0 8000 м 8/0
[Ac trans]
+24.4 +21.1 82 +31 +32 очень
душно
1012.8 1012.5 +24.2
03 20.06 В 2 10 км 3/0
[Ac und]
+29.4 +20.9 60 +37 +47 очень
душно
1012.8 1012.5
06 20.06 ЮВ 2 12 км 1/1 600 м
[Cu hum]
+31.6 +20.9 53 +39 +51 опасность
солнечного
удара
1010.8 1010.5
09 20.06 ЮВ 4 11 км ясно +30.4 +21.1 58 +38 +40 очень
душно
1009.4 1009.1
12 20.06 В 2 9000 м 3/0
[Ci fib]
+28.6 +21.4 65 +36 +36 очень
душно
1010.6 1010.3 +31.8
15 20.06 Ю 2 8000 м ясно +27.6 +22.3 73 +36 +36 очень
душно
1011.1 1010.8
18 20.06 штиль 0 8000 м ясно +26.2 +21.1 74 +33 +33 очень
душно
1010.7 1010.4
21 20.06 штиль 0 8000 м ясно +23.8 +20.0 79 +29 +29 душно 1010.5 1010.2
00 21.06 З 1 10 км 1/0
[Ci fib]
+24.0 +19.6 76 +29 +31 душно 1011.8 1011.5 +23.2
03 21.06 ЮВ 3 12 км 3/1 600 м
[Cu hum Cs]
+30.1 +20.9 58 +37 +47 очень
душно
1011.1 1010.7
06 21.06 В 2 12 км 1/1 600 м
[Cu hum]
+32.1 +21.3 53 +40 +52 опасность
солнечного
удара
1009.1 1008.8
09 21.06 В 3 12 км 1/0
[Ci fib]
+31.1 +21.9 58 +40 +41 очень
душно
1008.5 1008.2
12 21.06 В 2 9000 м 1/0
[Ci fib]
+28.9 +22.8 70 +38 +38 очень
душно
1009.7 1009.4 +33.4
15 21.06 В 3 9000 м 1/1 600 м
[Cu hum Ci fib]
+28.0 +23.2 75 +38 +38 очень
душно
1010.9 1010.6
18 21.06 Ю 1 8000 м 3/3 600 м
[Cu hum Ci fib]
+27.1 +22.2 75 +35 +35 очень
душно
1010.5 1010.2
21 21.06 штиль 0 8000 м 1/0
[Ci fib]
+24.7 +21.6 83 +32 +32 очень
душно
1010.0 1009.7
00 22.06 штиль 0 9000 м 5/0
[Ci fib]
+24.0 +21.4 85 +30 +33 очень
душно
1010.4 1010.0 +23.8
03 22.06 В 2 11 км 3/3 600 м
[Cu hum]
+30.0 +22.8 65 +40 +50 очень
душно
1010.5 1010.2
06 22.06 В 3 12 км 1/1 600 м
[Cu hum]
+32.4 +22.8 57 +42 +52 опасность
перегрева
1008.8 1008.4
09 22.06 В 3 12 км 4/1 600 м
[Cu med, cong Cs]
+31.2 +21.7 57 +40 +41 очень
душно
1008.0 1007.6
12 22.06 В 4 8000 м 4/1 600 м
[Cu hum Ci fib]
+28.9 +24.0 75 +40 +40 очень
душно
1009.3 1009.0 +34.0
15 22.06 штиль 0 8000 м 1/1 600 м
[Cu hum]
+28.3 +24.5 80 +40 +40 очень
душно
1010.4 1010.1
18 22.06 штиль 0 8000 м 9/9 700 м
[Sc]
+27.7 +23.4 77 +37 +37 очень
душно
1010.1 1009.8
21 22.06 штиль 0 8000 м ясно +25.1 +21.4 80 +32 +32 очень
душно
1010.3 1010.0
00 23.06 штиль 0 9000 м 3/0
[Ci fib]
+25.0 +21.2 79 +32 +34 очень
душно
1011.9 1011.5 +24.0
03 23.06 ЮВ 4 12 км 1/1 600 м
[Cu hum]
+30.3 +22.9 65 +40 +50 очень
душно
1011.9 1011.6
06 23.06 В 5 12 км ясно +32.4 +21.4 52 +40 +47 очень
душно
1009.7 1009.4
09 23.06 ЮВ 2 10 км 1/0
[Ci fib]
+31.2 +22.0 58 +40 +42 очень
душно
1009.0 1008.7
12 23.06 В 3 9000 м 1/0
[Ci fib]
+28.8 +23.0 71 +39 +39 очень
душно
1010.5 1010.2 +33.4
15 23.06 ЮВ 3 9000 м 3/1 600 м
[Cu hum Ci fib]
+28.2 +23.1 74 +38 +38 очень
душно
1011.9 1011.6
18 23.06 В 1 9000 м 1/0
[Ci fib]
+26.8 +23.2 81 +36 +36 очень
душно
1011.3 1011.0
21 23.06 Ю 1 9000 м ясно +24.5 +21.7 84 +31 +31 очень
душно
1011.9 1011.6
00 24.06 штиль 0 9000 м 3/0
[Ci fib]
+24.4 +21.1 82 +31 +33 очень
душно
1013.1 1012.8 +24.0
03 24.06 В 3 12 км 1/0
[Ci fib]
+30.3 +21.1 58 +38 +49 очень
душно
1013.1 1012.8
06 24.06 ЮВ 3 12 км ясно +32.3 +20.3 49 +39 +50 очень
душно
1010.9 1010.6
09 24.06 В 5 10 км 1/0
[Ci fib]
+31.0 +20.8 55 +38 +39 очень
душно
1010.5 1010.1
12 24.06 В 3 8000 м ясно +29.0 +22.0 66 +37 +37 очень
душно
1011.9 1011.6 +32.7
15 24.06 штиль 0 8000 м 1/0
[Ci fib]
+28.2 +22.9 73 +38 +38 очень
душно
1013.3 1013.0
18 24.06 штиль 0 8000 м ясно +27.0 +23.1 79 +36 +36 очень
душно
1012.8 1012.5
21 24.06 штиль 0 8000 м ясно +25.2 +21.5 80 +32 +32 очень
душно
1012.8 1012.3
00 25.06 ЮЗ 1 10 км 1/1 600 м
[Cu hum Ci fib]
+24.6 +20.9 80 +31 +33 очень
душно
1014.1 1013.8 +23.8

 

Местоположение метеостанции Сурабая Перак (Индонезия): широта -7.22 долгота 112.71 высота над уровнем моря 3 м.

В архиве по умолчанию представлена погода в Сурабая Перак за последнюю неделю. Архивные данные за месяц целиком и за предыдущие месяцы, начиная с января 2011 года, Вы можете получить, выбрав интересующий диапазон дат из раскрывающегося списка и нажав кнопку "Ввод!".


*Определитесь, кто Вы:
робот инопланетянин человек

Внимание! Время в таблицах - всемирное. Для получения местного времени необходимо прибавить поправку, которая равна 7 ч.

Смотрите также архив погоды в соседних городах и на ближайших метеорологических станциях:

Погода в Аэропорту Джуанда (Индонезия) (18 км)
Погода в Сурабая Геданган (Индонезия) (110 км)
Погода в Калиянджете (Индонезия) (139 км)
Погода в Сангкапуре (Индонезия) (153 км)
Погода в Банюванги (Индонезия) (215 км)
Погода в Семаранге (Индонезия) (255 км)
Погода в Аэропорту Ахмад Яни (Индонезия) (259 км)
Погода в Денпасаре (Индонезия) (319 км)
Погода в Тегале (Индонезия) (395 км)
Погода в Матараме (Индонезия) (397 км)

Пояснения к столбцам:

Ветер - указаны скорость ветра в м/с - средняя за 10 мин, порывы в срок и между сроками (в фигурных скобках) и направление, откуда дует ветер: С - северный, СВ - северо-восточный, В - восточный, ЮВ - юго-восточный, Ю - южный, ЮЗ - юго-западный, З - западный, СЗ - северо-западный.
Видимость - горизонтальная дальность видимости в метрах или километрах. При видимости от 1 до 10 км при отсутствии осадков обычно наблюдается дымка, при ухудшении видимости до 1 км и менее - туман. В сухую погоду видимость может ухудшаться дымом, пылью или мглою.
Явления - указаны атмосферные явления, наблюдавшиеся в срок или в последний час перед сроком; фигурными скобками обозначены явления, наблюдавшиеся между сроками (за 1-3 часа до срока); квадратными скобками обозначены град или гололедные отложения с указанием их диаметра в мм.
Облачность - указаны через наклонную черту общая и нижняя облачность в баллах и высота нижней границы облаков в метрах; квадратными скобками обозначены формы облаков: Ci - перистые, Cs - перисто-слоистые, Cc - перисто-кучевые, Ac - высококучевые, As - высокослоистые, Sc - слоисто-кучевые, Ns - слоисто-дождевые, Cu - кучевые, Cb - кучево-дождевые. Подробнее классификацию облаков см. в Атласе облаков (PDF).
T - Температура воздуха - температура, измеренная на высоте 2 м над землей.
Td - Температура точки росы - температура, при понижении до которой содержащийся в воздухе водяной пар достигнет насыщения.
f - Относительная влажность воздуха - влажноcть воздуха, измеренная на высоте 2 м над землей.
Te - Эффективная температура - температура, которую ощущает одетый по сезону человек в тени. Характеристика душности погоды. При расчете учитывается влияние влажности воздуха и скорости ветра на теплоощущения человека.
Tes - Эффективная температура на солнце - температура, которую ощущает человек, с поправкой на солнечный нагрев. Характеристика знойности погоды. Зависит от высоты солнца над горизонтом, облачности и скорости ветра. Ночью, в пасмурную погоду, а также при ветре 12 м/с и более поправка равна нулю.
P - Атмосферное давление - приведенное к уровню моря атмосферное давление.
Po - Атмосферное давление - измеренное на уровне метеостанции атмосферное давление.
Tmin - Минимальная температура - минимум температуры воздуха на высоте 2 м над землей.
Tmax - Максимальная температура - максимум температуры воздуха на высоте 2 м над землей.
R - Количество осадков - Количество выпавших осадков за период времени, мм. При наведении курсора мыши на число - период времени, за который выпало указанное количество осадков.
R24 - Количество осадков - Количество выпавших осадков за 24 часа, мм.
S - Снежный покров - Высота снежного покрова, см. При наведении курсора мыши на число - состояние снежного покрова и степень покрытия местности в баллах.